TimeEDT,TemperatureF,Dew PointF,Humidity,Sea Level PressureIn,VisibilityMPH,Wind Direction,Wind SpeedMPH,Gust SpeedMPH,PrecipitationIn,Events,Conditions,WindDirDegrees,DateUTC
12:16 AM,44.6,39.2,81,30.12,10.0,Calm,Calm,-,N/A,,Clear,0,2012-10-22 04:16:00
12:37 AM,44.6,41.0,87,30.12,10.0,Calm,Calm,-,N/A,,Clear,0,2012-10-22 04:37:00
12:56 AM,44.6,41.0,87,30.12,10.0,Calm,Calm,-,N/A,,Clear,0,2012-10-22 04:56:00
1:16 AM,46.4,41.0,81,30.12,10.0,Calm,Calm,-,N/A,,Clear,0,2012-10-22 05:16:00
1:37 AM,42.8,37.4,81,30.12,10.0,Calm,Calm,-,N/A,,Clear,0,2012-10-22 05:37:00
1:56 AM,44.6,39.2,81,30.12,10.0,Calm,Calm,-,N/A,,Clear,0,2012-10-22 05:56:00
2:36 AM,42.8,37.4,81,30.12,10.0,Calm,Calm,-,N/A,,Clear,0,2012-10-22 06:36:00
2:56 AM,46.4,41.0,81,30.12,10.0,Calm,Calm,-,N/A,,Clear,0,2012-10-22 06:56:00
3:36 AM,44.6,39.2,81,30.12,10.0,Calm,Calm,-,N/A,,Clear,0,2012-10-22 07:36:00
3:56 AM,44.6,39.2,81,30.12,10.0,Calm,Calm,-,N/A,,Clear,0,2012-10-22 07:56:00
4:17 AM,44.6,39.2,81,30.12,10.0,Calm,Calm,-,N/A,,Clear,0,2012-10-22 08:17:00
4:56 AM,44.6,39.2,81,30.12,10.0,Calm,Calm,-,N/A,,Clear,0,2012-10-22 08:56:00
5:17 AM,44.6,39.2,81,30.12,10.0,Calm,Calm,-,N/A,,Clear,0,2012-10-22 09:17:00
5:36 AM,44.6,39.2,81,30.12,10.0,Calm,Calm,-,N/A,,Clear,0,2012-10-22 09:36:00
5:56 AM,44.6,39.2,81,30.13,10.0,Calm,Calm,-,N/A,,Clear,0,2012-10-22 09:56:00
6:17 AM,44.6,39.2,81,30.13,10.0,SE,3.5,-,N/A,,Clear,140,2012-10-22 10:17:00
6:36 AM,44.6,39.2,81,30.13,10.0,Calm,Calm,-,N/A,,Clear,0,2012-10-22 10:36:00
6:56 AM,44.6,39.2,81,30.14,10.0,SSE,3.5,-,N/A,,Mostly Cloudy,150,2012-10-22 10:56:00
7:17 AM,44.6,41.0,87,30.14,10.0,SSE,3.5,-,N/A,,Mostly Cloudy,150,2012-10-22 11:17:00
7:36 AM,44.6,39.2,81,30.14,10.0,Calm,Calm,-,N/A,,Scattered Clouds,0,2012-10-22 11:36:00
7:56 AM,44.6,41.0,87,30.14,10.0,SSE,4.6,-,N/A,,Clear,150,2012-10-22 11:56:00
8:17 AM,46.4,41.0,81,30.14,10.0,SSE,4.6,-,N/A,,Clear,160,2012-10-22 12:17:00
8:36 AM,46.4,41.0,81,30.14,10.0,SSE,5.8,-,N/A,,Clear,150,2012-10-22 12:36:00
9:17 AM,50.0,42.8,76,30.15,10.0,SSE,5.8,-,N/A,,Mostly Cloudy,160,2012-10-22 13:17:00
9:36 AM,51.8,42.8,71,30.15,10.0,South,4.6,-,N/A,,Scattered Clouds,170,2012-10-22 13:36:00
9:56 AM,53.6,44.6,72,30.15,10.0,South,9.2,-,N/A,,Clear,180,2012-10-22 13:56:00
10:16 AM,55.4,44.6,67,30.15,10.0,South,8.1,-,N/A,,Clear,190,2012-10-22 14:16:00
10:36 AM,55.4,44.6,67,30.15,10.0,SSW,5.8,-,N/A,,Clear,200,2012-10-22 14:36:00
10:56 AM,57.2,44.6,63,30.15,10.0,South,5.8,-,N/A,,Scattered Clouds,190,2012-10-22 14:56:00
11:16 AM,59.0,44.6,59,30.14,10.0,South,6.9,-,N/A,,Scattered Clouds,180,2012-10-22 15:16:00
11:36 AM,62.6,46.4,55,30.14,10.0,South,6.9,-,N/A,,Clear,170,2012-10-22 15:36:00
11:56 AM,62.6,46.4,55,30.13,10.0,South,5.8,-,N/A,,Scattered Clouds,190,2012-10-22 15:56:00
12:16 PM,64.4,48.2,56,30.13,10.0,SSW,5.8,-,N/A,,Scattered Clouds,210,2012-10-22 16:16:00
12:36 PM,66.2,48.2,52,30.12,10.0,South,6.9,-,N/A,,Clear,190,2012-10-22 16:36:00
12:57 PM,66.2,48.2,52,30.12,10.0,South,8.1,-,N/A,,Clear,190,2012-10-22 16:57:00
1:16 PM,68.0,50.0,52,30.11,10.0,SSW,9.2,-,N/A,,Clear,200,2012-10-22 17:16:00
1:36 PM,69.8,50.0,49,30.10,10.0,SSW,9.2,-,N/A,,Clear,200,2012-10-22 17:36:00
1:57 PM,69.8,50.0,49,30.09,10.0,South,8.1,-,N/A,,Clear,180,2012-10-22 17:57:00
2:16 PM,71.6,50.0,46,30.09,10.0,South,10.4,-,N/A,,Clear,190,2012-10-22 18:16:00
2:36 PM,73.4,50.0,44,30.09,10.0,South,8.1,-,N/A,,Clear,190,2012-10-22 18:36:00
2:57 PM,73.4,50.0,44,30.08,10.0,South,9.2,-,N/A,,Clear,190,2012-10-22 18:57:00
3:16 PM,73.4,50.0,44,30.07,10.0,South,8.1,-,N/A,,Clear,180,2012-10-22 19:16:00
3:36 PM,73.4,51.8,47,30.07,10.0,SW,6.9,-,N/A,,Clear,220,2012-10-22 19:36:00
3:57 PM,75.2,50.0,41,30.07,10.0,SSW,12.7,16.1,N/A,,Clear,210,2012-10-22 19:57:00
4:16 PM,75.2,50.0,41,30.07,10.0,SW,11.5,-,N/A,,Scattered Clouds,220,2012-10-22 20:16:00
4:36 PM,73.4,50.0,44,30.08,10.0,SSW,11.5,16.1,N/A,,Mostly Cloudy,200,2012-10-22 20:36:00
4:57 PM,73.4,51.8,47,30.08,10.0,SSW,6.9,-,N/A,,Overcast,210,2012-10-22 20:57:00
5:16 PM,71.6,51.8,50,30.08,10.0,SSW,5.8,-,N/A,,Overcast,200,2012-10-22 21:16:00
5:36 PM,71.6,51.8,50,30.07,10.0,SSW,4.6,-,N/A,,Overcast,200,2012-10-22 21:36:00
5:57 PM,71.6,51.8,50,30.07,10.0,SSW,4.6,-,N/A,,Overcast,210,2012-10-22 21:57:00
6:16 PM,71.6,53.6,53,30.07,10.0,SSW,4.6,-,N/A,,Overcast,210,2012-10-22 22:16:00
6:36 PM,69.8,53.6,56,30.07,10.0,Calm,Calm,-,N/A,,Scattered Clouds,0,2012-10-22 22:36:00
6:57 PM,68.0,51.8,56,30.07,10.0,South,4.6,-,N/A,,Clear,190,2012-10-22 22:57:00
7:16 PM,66.2,53.6,64,30.06,10.0,South,5.8,-,N/A,,Clear,170,2012-10-22 23:16:00
7:36 PM,64.4,53.6,68,30.05,10.0,SSE,8.1,-,N/A,,Clear,160,2012-10-22 23:36:00
7:57 PM,68.0,51.8,56,30.05,10.0,South,4.6,-,N/A,,Clear,180,2012-10-22 23:57:00
8:16 PM,66.2,51.8,60,30.05,10.0,South,4.6,-,N/A,,Clear,180,2012-10-23 00:16:00
8:36 PM,66.2,51.8,60,30.06,10.0,SSW,4.6,-,N/A,,Clear,200,2012-10-23 00:36:00
8:57 PM,64.4,51.8,64,30.06,10.0,SSW,3.5,-,N/A,,Clear,210,2012-10-23 00:57:00
9:16 PM,62.6,50.0,63,30.06,10.0,Calm,Calm,-,N/A,,Clear,0,2012-10-23 01:16:00
9:57 PM,62.6,50.0,63,30.06,10.0,South,5.8,-,N/A,,Clear,180,2012-10-23 01:57:00
10:16 PM,62.6,50.0,63,30.06,10.0,South,4.6,-,N/A,,Scattered Clouds,170,2012-10-23 02:16:00
10:36 PM,62.6,50.0,63,30.06,10.0,South,5.8,-,N/A,,Mostly Cloudy,190,2012-10-23 02:36:00
10:57 PM,62.6,50.0,63,30.06,10.0,South,5.8,-,N/A,,Mostly Cloudy,180,2012-10-23 02:57:00
11:16 PM,62.6,50.0,63,30.06,10.0,South,5.8,-,N/A,,Mostly Cloudy,190,2012-10-23 03:16:00
11:36 PM,64.4,51.8,64,30.06,10.0,SSW,6.9,-,N/A,,Mostly Cloudy,200,2012-10-23 03:36:00
11:56 PM,62.6,50.0,63,30.05,10.0,SSW,6.9,-,N/A,,Mostly Cloudy,200,2012-10-23 03:56:00